GSAT 31

导读 | 豆包AI

GSAT-31是印度空间研究组织(ISRO)研制的地球静止轨道通信卫星,于2019年2月5日成功发射。该卫星旨在替换老化的在轨通信卫星,为印度本土及周边区域提供高性能通信与广播服务,覆盖包括岛屿在内的偏远地区,助力偏远区域 connectivity 升级,设计寿命超过10年,是印度空间通信布局中重要的补充卫星,巩固印度自主空间通信网络能力。

Basic Information
目录编号:
44035
目录名称:
GSAT 31
国际标识:
2019-007B
轨道中心:
EARTH
卫星名称:
GSAT 31
卫星全名:
--
卫星状态:
在轨 (已飞行2654 天)
发射日期:
2019-02-05 UTC
国别 :
印度 (IN)
星等 :
--
Orbit Information
数据来源 国际轨道数据 AOE轨道数据
星历时间 2026-05-12T22:48:53+0800
9小时前
查看轨道信息
2026-05-13T02:00:00+0800
6小时前
查看轨道信息
半长轴 42165.205km 42165.149km
偏心率 0.000243 0.0002408
轨道倾角 0.007° 0.005°
近地点辐角 115.041° 104.516°
升交点赤经 231.249° 241.816°
平近点角 154.198° 202.064°
近地点 35776.821km 35776.858km
远地点 35797.315km 35797.166km
周期 1436.121分钟 1436.118分钟
每日圈数 1.002701 1.002703
Detailed Information
使用方式:
暂无
2D Orbit Map
3D Orbit Map
Orbit Altitude Analysis Chart
Orbit Inclination Analysis Chart
Orbit Comprehensive Analysis Chart
View Comprehensive Chart